記事タイトル:Comet 54P/de VIico-Swift = P/2002 T4 (NE 

最新の情報は「更新」や「再読み込み」ボタンを押してリロードしてご覧ください。

書き込み欄へ  ヘルプ
お名前: 佐藤 裕久   
下記URLは使えませんので、
http://cfa-www.harvard.edu/iau/lists/LastYear.html を見てください。
[2002年10月13日 22時21分25秒]

お名前: 佐藤 裕久    URL
Comet 54P/de VIico-Swift-NEATとなった。

上記URL参照 
[2002年10月13日 22時18分53秒]

お名前: 佐藤 裕久    URL
K. Lawrence、S. Pravdoと E. Helin (Jet推進研究所)は、10月11.22UT、Palomarの
NEAT画像から核の集光約4″と南南西に向かって約20″の尾のある彗星を発見した。
小惑星センターでは短周期彗星であるとしてP/2002 T4 (NEAT)と発表した。
高知市の村岡健治氏はMPEC 2002-T76の軌道を見て即座に54Pだと気づき、1965年の観測
との同定を試みた。見事に一致し、久万の中村彰正氏を通じIAU中央局へ通報した。

P/2002 T4の発見位置は次のとおり、

     2002 UT             R.A. (2000) Decl.        m1
     Oct. 11.22228    2 04 33.10   +18 08 40.9   19.3

村岡氏の同定した1965-2002の軌道は次のとおり、

      Epoch  =  2002 July 25.0  TT       JDT = 2452480.5
          T  =  2002 July 30.94176       +/- 0.00059 (m.e.) TT
       Peri. =    2.05547                +/- 0.00088
       Node  =  358.96468                +/- 0.00063   (2000.0)
       Incl. =    6.08495                +/- 0.00008
          q  =    2.1449741              +/- 0.0000051 AU
          e  =    0.4306942              +/- 0.0000009
          a  =    3.7677014              +/- 0.0000029 AU
          n゜ =    0.13476880             +/- 0.00000015
          P  =    7.313                  +/- 0.0000084  years

村岡氏の軌道は彗星年表 2002 (OAA Comet Section, 2002)の予報[orbit 1]に対し
て、ΔT = +0.24 dayである。

MPCの発表した1965-2002のB.G. Marsdenの軌道は次のとおり、

                    Epoch = 2002 July 25.0 TT
     T = 2002 July 30.93980 TT        Peri. =   2.05527
     e = 0.4306928                    Node  = 358.96433 2000.0
     q = 2.1449799 AU                 Incl. =   6.08493
       a =  3.7677022 AU   n = 0.13476876   P =   7.313 years


Marsdenの軌道軌道は、MPC 34423(位置推算表は、MPC 46016)の予報に対して、ΔT = 
-7.5 daysである。

(IAUC 7991, 7992、MPEC 2002-T76)

なお、村岡氏の軌道は上記URLを参照
[2002年10月13日 12時48分52秒]

この記事への返信をどうぞ。
氏名
E-mail URL



記事一覧に戻る